Terminal Aerodrome Forecast
Issued by NWS

Home | Current Version | Previous Version | Text Only | Print | Product List | Glossary On
Versions: 1 2 3 4 5 6 7 8 9 10 11 12 13 14 15 16 17 18 19 20 21 22 23 24 25 26
841
FTUS43 KILX 180742 AAA
TAFBMI
TAF AMD
KBMI 180742Z 1808/1906 19015KT 6SM SHRA VCTS OVC018CB
     FM181400 31013G21KT 1SM SHRA BR OVC008
     FM181800 33022G33KT 3SM -SHRA BR OVC008
     FM182200 32018G26KT P6SM -SHRA BKN035
     FM190100 31015G25KT P6SM FEW200=

USA.gov is the U.S. government's official web portal to all federal, state and local government web resources and services.